This is the latest recevied weather packets stored in our database for station/object W4TJP. If no packets are shown the sender has not sent any weather packets the latest 10 day(s).
| Time | Temp. | Humidity | Pressure | Rain* | Wind** | Luminosity | Snow |
|---|---|---|---|---|---|---|---|
| 1777137239 | 22.78° C | 70% | 1010.3 hPa | 0 mm | - | 144 W/m² | - |
| 1777136936 | 22.78° C | 70% | 1010.4 hPa | 0 mm | - | 149 W/m² | - |
| 1777136632 | 23.33° C | 67% | 1010.4 hPa | 0 mm | - | 154 W/m² | - |
| 1777136329 | 24.44° C | 68% | 1010.3 hPa | 0 mm | - | 251 W/m² | - |
| 1777136027 | 23.89° C | 65% | 1010.4 hPa | 0 mm | - | 271 W/m² | - |
| 1777135722 | 23.89° C | 65% | 1010.5 hPa | 0 mm | - | 203 W/m² | - |
| 1777135418 | 23.89° C | 66% | 1010.5 hPa | 0 mm | - | 290 W/m² | - |
| 1777135115 | 23.89° C | 67% | 1010.6 hPa | 0 mm | - | 789 W/m² | - |
| 1777134813 | 22.78° C | 67% | 1010.3 hPa | 0 mm | - | 689 W/m² | - |
| 1777134508 | 22.78° C | 68% | 1010.2 hPa | 0 mm | - | 255 W/m² | - |
| 1777134205 | 22.78° C | 69% | 1010.4 hPa | 0 mm | - | 205 W/m² | - |
| 1777133902 | 22.78° C | 67% | 1010.4 hPa | 0 mm | - | 227 W/m² | - |
| 1777133598 | 22.78° C | 67% | 1010.5 hPa | 0 mm | - | 608 W/m² | - |
| 1777133297 | 22.22° C | 70% | 1010.6 hPa | 0 mm | - | 310 W/m² | - |
| 1777132997 | 22.22° C | 71% | 1010.6 hPa | 0 mm | - | 495 W/m² | - |
| 1777132694 | 22.78° C | 69% | 1010.2 hPa | 0 mm | - | 188 W/m² | - |
| 1777132390 | 23.33° C | 68% | 1010.7 hPa | 0 mm | - | 215 W/m² | - |
| 1777132088 | 23.33° C | 68% | 1010.5 hPa | 0 mm | - | 707 W/m² | - |
| 1777131783 | 22.22° C | 71% | 1010.5 hPa | 0 mm | - | 665 W/m² | - |
| 1777131480 | 22.78° C | 69% | 1010.6 hPa | 0 mm | - | 480 W/m² | - |
| 1777131179 | 22.78° C | 70% | 1010.3 hPa | 0 mm | - | 668 W/m² | - |
| 1777130875 | 22.78° C | 69% | 1010.5 hPa | 0 mm | - | 595 W/m² | - |
| 1777130571 | 22.78° C | 71% | 1010.4 hPa | 0 mm | - | 601 W/m² | - |
| 1777130268 | 21.67° C | 76% | 1010.4 hPa | 0 mm | - | 593 W/m² | - |
| 1777129964 | 21.11° C | 75% | 1010.4 hPa | 0 mm | - | 387 W/m² | - |
* Rain latest hour (hover to see other rain measurements)
** Current wind speed in m/s (hover to see current wind gust speed)